Regional Weather Roundup
Issued by NWS

Home | Current Version | Previous Version | Graphics & Text | Print | Product List | Glossary On
Versions: 1 2 3 4 5 6 7 8 9 10 11 12 13 14 15 16 17 18 19 20 21 22 23 24 25 26 27 28 29 30 31 32 33 34 35 36 37 38 39 40 41 42 43 44 45 46 47 48 49 50
000
ASUS45 KSLC 111310
RWRUT

UTAH REGIONAL WEATHER ROUNDUP
NATIONAL WEATHER SERVICE SALT LAKE CITY UT
700 AM MDT FRI JUL 11 2014

UTZ001>011-023>025-111400-

NORTHERN UTAH

CITY           SKY/WX    TMP DP  RH WIND       PRES   REMARKS
HILL AFB       CLOUDY    67  58  72 E7        30.10R
LOGAN          CLEAR     65  61  87 CALM      30.08S
OGDEN          CLOUDY    70  57  63 CALM      30.08R
PROVO AIRPORT  CLOUDY    64  61  88 SE5       30.12S
SALT LAKE CITY CLOUDY    71  58  63 S10       30.06R
VERNAL         CLOUDY    66  59  78 W5        30.14R
WENDOVER       MOCLDY    72  55  56 NE8       30.06R
HEBER CITY     CLOUDY    61  57  88 CALM      30.18R

$$

UTZ012>022-026-027-111400-

SOUTHERN UTAH

CITY           SKY/WX    TMP DP  RH WIND       PRES   REMARKS
BRYCE CANYON   CLEAR     47  45  93 CALM      30.31R
CEDAR CITY     CLOUDY    56  54  93 SW3       30.17R
MILFORD        CLOUDY    62  59  90 SW12      30.12S
MOAB/CYNLANDS  CLEAR     68  61  78 CALM      30.06S
PRICE          PTCLDY    63  52  67 CALM      30.17R
ST GEORGE      NOT AVBL

$$

REGIONAL REPORTS     COLORADO/ARIZONA

CITY           SKY/WX    TMP DP  RH WIND       PRES   REMARKS
CRAIG, CO      PTSUNNY   57  55  93 E10       30.22S
GRAND JUNCTION SUNNY     69  57  65 E5        30.11R
RIFLE          PTSUNNY   63  59  87 SE3       30.20R
MONTROSE       SUNNY     64  55  72 SE7       30.21S
CORTEZ         PTCLDY    63  54  72 CALM      30.20R
PAGE, AZ       CLEAR     72  54  53 CALM      30.10R
GRAND CANYON   PTCLDY    53  51  93 CALM      30.27R
KINGMAN        CLEAR     65  55  70 S5        30.04R
FLAGSTAFF      PTCLDY    53  49  86 CALM      30.31R

$$

REGIONAL REPORTS    NEVADA/IDAHO/WYOMING

CITY           SKY/WX    TMP DP  RH WIND       PRES   REMARKS
LAS VEGAS, NV  MOCLDY    78  60  53 S5        29.92R
ELY            CLOUDY    57  53  86 S7        30.20S
ELKO           PTCLDY    57  50  77 CALM      30.10R
POCATELLO, ID  CLEAR     69  55  60 NE6       30.03R
BURLEY         PTCLDY    69  53  56 S13       29.99R
EVANSTON, WY   CLOUDY    57  54  89 CALM      30.25R
ROCK SPRINGS   CLOUDY    61  53  75 CALM      30.24R

$$



USA.gov is the U.S. government's official web portal to all federal, state and local government web resources and services.